Flag for Germany Weather past 2 weeks in Zweibrücken, Rhineland-Palatinate, Germany

Now
66 °F

Partly sunny.


Feels Like: 66 °F
Forecast: 44 / 57 °F
Wind: 8 mph from Southwest

Location: Saarbruecken / Ensheim

Current Time: Apr 26, 2015 at 3:58:54 PM

Latest Report: Apr 26, 2015 at 3:20 PM


Visibility: N/A

Pressure: 29.71 "Hg

Humidity: 56%

Dew point: 50 °F

Location of ZweibrückenLocation

Historic Weather in Zweibrücken — Graph

°F

Zweibrücken temperature yesterday

Maximum temperature yesterday: 57 °F (at 11:20 AM)
Minimum temperature yesterday: 50 °F (at 12:20 AM)
Average temperature yesterday: 54 °F

Past Weeks' High & Low Weather Summary

 TemperatureHumidityPressure
High75 °F (Apr 15, 2:50 PM)100% (Apr 12, 7:20 AM)30.45 "Hg (Apr 12, 7:20 AM)
Low36 °F (Apr 19, 4:50 AM)19% (Apr 15, 4:20 PM)29.74 "Hg (Apr 26, 2:20 PM)
Average55 °F56%30.14 "Hg
* Reported Apr 11 2:20 PM — Apr 26 2:20 PM, Zweibrücken, Weather by CustomWeather, © 2015

Note: Actual official high and low records may vary slightly from our data, if they occured in-between our weather recording intervals... More about our weather records

Advertising

Zweibrücken weather history for previous 24 hours

 ConditionsComfort  
Time TempWeatherWind HumidityBarometerVisibility
2:20 PM
Sun, Apr 26
66 °FPartly sunny.8 mph56%29.74 "HgN/A
1:50 PM64 °FBroken clouds.9 mph60%29.77 "HgN/A
1:20 PM63 °FPartly sunny.9 mph64%29.77 "HgN/A
12:50 PM63 °FPartly sunny.10 mph73%29.77 "HgN/A
12:20 PM61 °FBroken clouds.9 mph77%29.80 "HgN/A
11:50 AM57 °FPartly sunny.6 mph88%29.80 "HgN/A
11:20 AM55 °FPartly sunny.10 mph88%29.80 "HgN/A
10:50 AM55 °FPartly sunny.8 mph88%29.80 "HgN/A
10:20 AM55 °FPartly sunny.7 mph88%29.80 "HgN/A
9:50 AM54 °FPartly sunny.8 mph94%29.80 "HgN/A
9:20 AM54 °FPartly sunny.8 mph88%29.80 "HgN/A
8:50 AM52 °FBroken clouds.8 mph100%29.83 "Hg5 mi
8:20 AM52 °FPartly sunny.7 mph94%29.83 "Hg5 mi
7:50 AM52 °FSprinkles. Fog.7 mph94%29.83 "Hg2 mi
7:20 AM52 °FPartly sunny.7 mph94%29.83 "Hg5 mi
6:50 AM52 °FPassing clouds.7 mph94%29.80 "Hg5 mi
6:20 AM52 °FPassing clouds.7 mph94%29.80 "Hg5 mi
5:50 AM52 °FLow clouds.6 mph94%29.80 "Hg5 mi
5:20 AM52 °FLow clouds.7 mph94%29.83 "Hg5 mi
4:50 AM52 °FLow clouds.8 mph94%29.83 "Hg5 mi
4:20 AM52 °FLow clouds.10 mph94%29.83 "Hg6 mi
3:50 AM54 °FLow clouds.7 mph94%29.83 "Hg5 mi
3:20 AM54 °FLow clouds.8 mph94%29.83 "HgN/A
2:50 AM54 °FPassing clouds.8 mph94%29.83 "HgN/A
2:20 AM54 °FLow clouds.10 mph94%29.83 "HgN/A
1:50 AM54 °FLow clouds.8 mph94%29.83 "HgN/A
1:20 AM54 °FLow clouds.9 mph94%29.86 "HgN/A
12:50 AM54 °FLow clouds.8 mph94%29.86 "Hg4 mi
12:20 AM54 °FLow clouds.7 mph94%29.86 "Hg3 mi
11:20 PM
Sat, Apr 25
54 °FLow clouds.8 mph94%29.86 "Hg3 mi
10:50 PM54 °FLow clouds.8 mph94%29.86 "Hg6 mi
10:20 PM54 °FPassing clouds.9 mph94%29.86 "HgN/A
9:50 PM54 °FPartly cloudy.10 mph94%29.83 "HgN/A
9:20 PM54 °FBroken clouds.8 mph94%29.83 "HgN/A
8:50 PM54 °FBroken clouds.6 mph94%29.83 "HgN/A
8:20 PM54 °FPartly sunny.8 mph94%29.83 "HgN/A
7:50 PM55 °FPartly sunny.7 mph88%29.83 "HgN/A
7:20 PM55 °FLight rain. Partly sunny.6 mph88%29.83 "HgN/A
6:50 PM55 °FLight rain. Partly sunny.9 mph88%29.83 "HgN/A
6:20 PM55 °FPartly sunny.7 mph88%29.83 "HgN/A
5:50 PM55 °FBroken clouds.7 mph88%29.83 "HgN/A
5:20 PM55 °FPartly sunny.6 mph88%29.83 "HgN/A
4:50 PM55 °FBroken clouds.5 mph88%29.83 "HgN/A
4:20 PM54 °FSprinkles. Broken clouds.7 mph88%29.83 "Hg5 mi
3:50 PM55 °FLight rain. Partly sunny.10 mph82%29.83 "Hg5 mi
3:20 PM57 °FLight rain. More clouds than sun.8 mph77%29.83 "HgN/A
Weather by CustomWeather, © 2015

See weather overviewHow to use our weather pages